Location: Berry Creek
(51.8849°N, 111.7341°W)
Time: 20:43:58
(UTC-06:00)

Daily predictions for brighter satellites

Satellite Brightness Start Highest point End
(mag) Time Altitude Azimuth Time Altitude Azimuth Time Altitude Azimuth
Cosmos 1605 Rocket 4.3 20:57:59 10° SSE 21:04:04 50° E 21:10:05 10° NNE
Cosmos 2227 Rocket 2.3 21:00:50 10° NNW 21:06:33 84° WSW 21:12:13 10° SSE
Meteor 2-16 Rocket 4.4 21:02:27 10° S 21:08:28 70° E 21:14:33 10° NNE
Cosmos 2263 Rocket 4.2 21:05:13 10° NNW 21:08:39 16° NNE 21:12:06 10° ENE
Helios 1B rocket 3.9 21:06:54 10° N 21:10:51 44° WNW 21:14:45 10° SW
YAOGAN 11 4.2 21:06:25 10° SSE 21:10:54 67° ENE 21:15:21 10° N
ALOS 3.2 21:09:54 10° S 21:14:28 52° W 21:19:04 10° NNW
NOSS 2-1 (E) 3.7 21:11:21 10° SSW 21:15:15 50° SE 21:19:57 10° NE
Cosmos 1943 Rocket 3.8 21:11:19 10° WSW 21:16:37 41° NW 21:22:00 10° NNE
Meteor 1-5 Rocket 4.1 21:12:34 10° S 21:17:53 77° E 21:23:25 10° NNE
FENGYUN 3A 4.4 21:12:56 10° S 21:18:10 55° W 21:23:27 10° NNW
Cosmos 2082 3.9 21:13:36 10° NNW 21:19:14 74° WSW 21:24:49 10° SSE
Cosmos 2297 Rocket 2.3 21:16:42 10° NNW 21:22:24 87° WSW 21:28:04 10° SSE
Cosmos 1340 4.1 21:20:36 10° NNE 21:23:41 23° ENE 21:26:23 12° ESE
Lacrosse 5 1.9 21:20:59 10° WNW 21:26:05 85° NNE 21:30:48 12° ESE
Cosmos 2123 Rocket 4.3 21:20:10 10° NNW 21:26:21 73° W 21:32:29 10° S
Cosmos 1626 Rocket 3.6 21:25:04 10° N 21:29:32 85° ENE 21:33:56 10° S
Cosmos 1515 3.7 21:26:03 10° N 21:29:55 63° ENE 21:33:44 10° SSE
H-2A R/B 2.2 21:26:43 10° SE 21:30:42 51° ENE 21:34:45 10° N
Cosmos 2208 Rocket 4.0 21:29:02 10° SSW 21:34:20 71° ESE 21:39:45 10° NNE
BREEZE-M TANK 4.5 21:21:57 10° W 21:35:25 43° SSW 21:38:58 13° SE
USA 215 3.4 21:29:23 10° ESE 21:35:52 80° NNE 21:42:26 10° WNW
Cosmos 2298 Rocket 4.0 21:30:47 10° NNW 21:36:07 81° ENE 21:41:28 10° SSE
SPOT 5 3.2 21:31:53 10° SE 21:36:48 53° ENE 21:41:29 10° N
Cosmos 1602 Rocket 3.7 21:33:01 10° NNW 21:37:32 82° W 21:41:59 10° S
Cosmos 1975 2.9 21:34:58 10° S 21:39:00 59° E 21:43:04 10° NNE
Cosmos 1455 Rocket 3.3 21:35:04 10° SSW 21:39:23 73° WNW 21:43:46 10° N
Cosmos 1743 3.9 21:41:34 15° SE 21:43:57 26° E 21:47:15 10° NNE
Cosmos 1461 4.4 21:42:23 10° WNW 21:46:00 30° WSW 21:49:30 10° S
Lacrosse 5 rocket 2.4 21:42:53 10° WNW 21:46:16 32° SW 21:49:06 13° SSE
Tiangong 1 3.0 21:46:19 10° SW 21:48:13 15° S 21:48:47 15° SSE
YAOGAN 6 3.0 21:46:41 17° SE 21:49:18 46° ENE 21:52:53 10° N
Cosmos 1459 Rocket 4.2 21:44:48 10° SSE 21:50:32 47° E 21:56:21 10° NNE
CZ-4 DEB 4.1 21:48:58 10° S 21:51:56 38° W 21:54:56 10° NNW
Cosmos 1066 Rocket 4.2 21:46:25 10° NNW 21:52:03 85° ENE 21:57:48 10° SSE
Cosmos 1570 Rocket 4.1 21:47:27 10° SSW 21:52:45 81° WNW 21:58:04 10° NNE
H-2A R/B 3.2 21:50:51 15° ESE 21:53:52 26° ENE 21:57:56 10° N
USA 186 4.5 21:51:52 10° SW 21:54:00 17° W 21:56:03 10° NW
Cosmos 1842 4.3 21:52:51 10° N 21:56:20 29° ENE 21:58:08 20° ESE
Cosmos 1937 Rocket 3.5 21:51:42 10° NNW 21:56:59 80° ENE 22:01:13 16° SSE
Envisat 3.2 21:52:17 10° S 21:57:21 74° WSW 22:02:29 10° NNW
Cosmos 1153 Rocket 4.4 21:53:23 10° S 21:59:36 84° E 22:05:47 10° N
PSLV R/B 3.3 21:59:10 25° SE 22:00:40 53° ENE 22:03:40 10° N
MetOp-A 4.1 21:57:16 13° SSE 22:02:02 78° ENE 22:07:26 10° NNW
Cosmos 2150 Rocket 4.1 21:58:12 10° NNW 22:03:21 73° WSW 22:07:47 14° SSE
BREEZE-M DEB (TANK) 2.8 22:02:04 10° W 22:04:06 31° SSW 22:05:25 22° SSE
Cosmos 2058 Rocket 4.3 22:02:59 21° ESE 22:04:30 25° E 22:08:09 10° NNE
CZ-4 SHROUD 3.4 22:03:36 27° SE 22:04:58 53° ENE 22:08:00 10° N
Meteor 1-12 Rocket 4.4 21:59:30 10° SSW 22:05:15 81° WNW 22:11:10 10° NNE
Cosmos 2084 3.9 22:03:24 10° NW 22:07:17 49° SW 22:09:58 19° SSE
Cosmos 2278 3.7 22:01:46 10° SSW 22:07:29 88° WNW 22:13:14 10° NNE
Cosmos 1697 Rocket 3.0 22:02:13 10° S 22:07:29 42° ESE 22:12:47 10° NE
ASTEX 1 3.6 22:04:00 10° NNE 22:08:55 52° E 22:12:35 17° SSE
Cosmos 1939 Rocket 3.9 22:05:14 10° S 22:09:13 47° W 22:13:17 10° NNW
SL-16 R/B 4.1 22:11:47 12° E 22:11:47 12° E 22:13:05 10° ENE
ATLAS CENTAUR R/B 3.5 22:06:33 10° W 22:11:08 34° NNW 22:15:31 10° NE
Iridium 4 Rocket 4.3 22:07:05 10° N 22:12:19 53° W 22:17:03 10° SSW
Cosmos 1802 Rocket 4.1 22:06:10 10° S 22:12:24 58° E 22:18:43 10° NNE
SPOT 1/Viking Rocket 3.6 22:08:45 19° SSE 22:12:26 66° ENE 22:17:37 10° N
Cosmos 990 Rocket 4.0 22:09:04 10° NNW 22:14:23 83° ENE 22:17:52 22° SSE
EP 1 4.1 22:12:14 10° SW 22:14:45 75° SE 22:17:41 10° NE
NOAA 11 4.3 22:11:33 20° SSE 22:15:23 66° ENE 22:20:49 10° N
SL-08 RB Rocket 4.0 22:13:21 24° SE 22:15:58 53° ENE 22:20:31 10° N
Cosmos 1606 Rocket 3.9 22:15:20 23° SSE 22:17:43 45° E 22:21:58 10° NNE
Cosmos 2369 3.8 22:14:45 10° SSW 22:20:27 80° WNW 22:26:13 10° NNE
Terra 2.8 22:19:09 23° ESE 22:21:15 33° ENE 22:25:32 10° N
CZ-4B R/B 4.0 22:17:55 10° NNE 22:22:17 35° E 22:23:58 27° SE
Cosmos 1980 Rocket 2.6 22:25:46 20° SSE 22:29:11 39° ESE 22:34:28 10° NE
CARTOSAT-1 4.4 22:27:42 27° ESE 22:29:13 36° ENE 22:33:11 10° N
Cosmos 1898 Rocket 4.5 22:25:51 10° NW 22:30:53 44° WSW 22:35:10 14° S
RESURS DK-1 2.9 22:29:08 10° NW 22:33:10 51° WSW 22:35:14 26° S
Cosmos 2016 Rocket 3.9 22:28:04 15° S 22:33:14 68° E 22:39:24 10° NNE
NOSS 7 (H) 4.3 22:31:08 10° SW 22:34:24 83° SE 22:38:09 10° NE
ARGOS 3.1 22:31:04 24° SSE 22:34:28 88° ENE 22:39:54 10° NNW
Meteor 1-21 4.4 22:29:19 10° NNW 22:35:04 79° W 22:39:14 20° S
Cosmos 1125 Rocket 3.7 22:32:02 10° NNW 22:37:12 59° ENE 22:39:32 32° SE
Cosmos 1666 3.0 22:37:38 42° ESE 22:38:08 44° E 22:41:47 10° NNE
SL-24 R/B - RUBIN 2 4.4 22:35:06 10° SSW 22:41:08 70° SE 22:47:44 10° NE
Cosmos 1726 Rocket 3.5 22:40:21 31° S 22:42:19 67° E 22:46:43 10° NNE
CZ-4C R/B 3.8 22:43:33 37° SE 22:45:03 58° ENE 22:49:25 10° N
Cosmos 2173 Rocket 4.2 22:39:56 10° SSW 22:46:19 78° WNW 22:52:41 10° N
Cosmos 1763 Rocket 3.6 22:44:50 31° SSE 22:46:54 49° ESE 22:51:48 10° NNE
SL-19 R/B 4.1 22:42:26 10° NNE 22:48:05 73° ESE 22:51:51 20° S
Cosmos 1825 Rocket 4.5 22:45:21 10° NNW 22:49:37 45° W 22:52:32 18° SSW
Cosmos 2061 Rocket 4.2 22:47:01 10° SSW 22:53:19 71° WNW 22:59:36 10° N
Tsikada Rocket 4.0 22:47:17 10° N 22:53:46 87° E 22:57:24 28° S
Cosmos 2263 Rocket 2.7 22:48:38 10° NNW 22:54:02 48° NE 22:56:22 30° ESE
Cosmos 2100 Rocket 4.4 22:49:03 10° SSW 22:55:17 64° WNW 23:01:30 10° N
Cosmos 468 Rocket 4.1 22:52:37 10° SSW 22:57:45 76° WNW 23:02:55 10° NNE
Cosmos 1953 Rocket 4.3 22:53:40 10° NNW 22:57:58 50° W 23:00:21 24° SSW
Cosmos 405 Rocket 2.8 22:55:39 10° N 22:59:25 53° ENE 22:59:40 51° E
Cosmos 1340 4.0 22:56:02 10° NNW 22:59:33 36° W 23:01:17 23° SW
Cosmos 2322 Rocket 3.1 23:00:20 29° E 23:00:20 29° E 23:04:52 10° NE
Cosmos 1864 Rocket 4.4 22:57:09 27° S 23:00:36 72° E 23:06:43 10° NNE
Cosmos 2360 4.4 23:01:41 36° SSE 23:03:37 50° ESE 23:09:09 10° NE
Cosmos 1814 Rocket 4.1 22:59:34 10° SSW 23:04:56 78° WNW 23:10:16 10° NNE
Cosmos 2297 Rocket 4.5 23:02:06 10° WNW 23:05:38 17° W 23:09:10 10° SW
Cosmos 841 Rocket 3.4 23:04:41 36° S 23:06:44 64° ESE 23:11:55 10° NNE
H-2A R/B 4.2 23:04:02 10° SW 23:07:03 20° W 23:10:05 10° NW
Cosmos 1656 4.1 23:02:28 10° SW 23:08:02 62° NW 23:13:34 10° NNE
Lacrosse 5 3.1 23:04:18 10° WNW 23:08:40 29° SW 23:09:59 26° SSW
GP-B 3.4 23:04:40 10° NNE 23:08:59 46° E 23:09:19 45° E
Meteor 2-9 Rocket 4.0 23:06:35 32° S 23:09:16 79° E 23:14:42 10° NNE
Genesis I 4.3 23:07:35 10° NNW 23:11:18 35° NE 23:12:13 31° ENE
Okean 3 Rocket 4.3 23:14:19 10° N 23:18:28 38° ENE 23:18:44 38° E
USA 215 3.7 23:16:43 33° S 23:19:12 47° SW 23:25:30 10° WNW
Cosmos 1743 4.4 23:16:42 13° SW 23:19:42 32° WNW 23:23:18 10° N
Cosmos 2346 Rocket 4.4 23:22:27 10° N 23:28:45 87° E 23:30:56 44° SSE
Cosmos 2228 3.0 23:29:55 57° SW 23:30:40 75° WNW 23:34:58 10° N
Cosmos 1725 Rocket 4.1 23:26:55 25° SSW 23:30:45 73° WNW 23:37:02 10° N
H-2A R/B 2.3 23:31:30 40° SSW 23:33:01 56° W 23:37:54 10° NNW
Cosmos 540 Rocket 3.8 23:34:10 45° E 23:34:10 45° E 23:38:49 10° NE
ALOS 2 4.2 23:33:30 22° ENE 23:33:56 22° ENE 23:37:21 10° N
Cosmos 2278 Rocket 4.2 23:30:27 10° NNW 23:34:41 21° NNE 23:38:34 11° ENE
GEOS 3 Rocket 3.4 23:29:32 10° NE 23:34:42 76° SE 23:37:08 32° SSW
IGS 5A 3.6 23:35:41 59° SW 23:36:05 62° WSW 23:40:13 10° NNW
Cosmos 372 Rocket 3.9 23:30:57 10° NNW 23:36:05 79° WSW 23:37:03 59° S
Cosmos 2058 Rocket 4.1 23:40:15 27° SW 23:42:15 44° WNW 23:46:37 10° N
CZ-4 R/B 4.2 23:38:29 10° N 23:43:08 61° WNW 23:44:58 35° SW
Cosmos 1707 2.9 23:44:52 10° N 23:48:25 70° N 23:48:25 70° N
Cosmos 1697 Rocket 3.8 23:46:06 10° WSW 23:51:29 44° NW 23:56:54 10° NNE
ATLAS CENTAUR R/B 4.5 23:48:09 10° NW 23:51:31 18° N 23:54:45 10° NE
Cosmos 332 Rocket 3.8 23:51:52 64° E 23:51:52 64° E 23:56:32 10° NNE
Cosmos 1408 Rocket 4.4 23:48:07 10° N 23:52:12 39° ENE 23:52:12 39° ENE
CZ-4B R/B 3.8 23:53:51 18° NE 23:53:51 18° NE 23:55:47 10° NNE
SL-16 R/B 2.1 23:53:37 61° SE 23:54:06 64° ESE 23:59:44 10° NE
